Stations météo

Publicité
Rheinstetten, Allemagne (10731): Température de l'air & dewpoint: 16.09.2018 17:00:00 - 22.09.2018 17:00:00 (CEST)Rheinstetten, Allemagne (10731): Température de l'air 5cm & Température de l'air -5cm: 16.09.2018 17:00:00 - 22.09.2018 17:00:00 (CEST)Rheinstetten, Allemagne (10731): Température de l'air -20cm & Température de l'air -100cm: 16.09.2018 17:00:00 - 22.09.2018 17:00:00 (CEST)Rheinstetten, Allemagne (10731): Vitesse du vent & gusts: 16.09.2018 17:00:00 - 22.09.2018 17:00:00 (CEST)Rheinstetten, Allemagne (10731): Direction du vent: 16.09.2018 17:00:00 - 22.09.2018 17:00:00 (CEST)Rheinstetten, Allemagne (10731): reduced air pressure: 16.09.2018 17:00:00 - 22.09.2018 17:00:00 (CEST)Rheinstetten, Allemagne (10731): visibility: 16.09.2018 17:00:00 - 22.09.2018 17:00:00 (CEST)Rheinstetten, Allemagne (10731): Ensoleillement: 16.09.2018 17:00:00 - 22.09.2018 17:00:00 (CEST)Rheinstetten, Allemagne (10731): Quantités de précipitations: 16.09.2018 17:00:00 - 22.09.2018 17:00:00 (CEST)
Date & Time tt [°C] td [°C] tt 5cm [°C] tt -5cm [°C] tt -20cm [°C] tt -100cm [°C] ff [km/h] ff [knt] fx [km/h] fx [knt] dd ppp [hPa] vv [km] sd [min] rr [mm]
22.09.2018 17:00:00 18,8 5,2 20,8 24,8 21,1 21,5 21 11 32 17 SW 1021,2 41 35 0,0
22.09.2018 16:00:00 19,1 4,6 22,5 25,5 20,4 21,5 18 10 35 19 WSW 1022,0 26 60 0,0
22.09.2018 15:00:00 18,8 6,0 22,2 25,0 19,5 21,5 16 9 31 17 WSW 1022,1 54 53 0,0
22.09.2018 14:00:00 18,8 6,8 23,5 24,0 18,5 21,5 18 10 29 16 SW 1023,1 26 52 0,0
22.09.2018 13:00:00 17,6 6,9 22,1 20,7 17,8 21,6 19 10 32 17 WSW 1023,8 32 44 0,0
22.09.2018 12:00:00 16,0 6,6 18,5 18,9 17,2 21,6 18 10 29 16 WSW 1024,3 32 57 0,0
22.09.2018 11:00:00 15,1 7,9 17,2 16,7 16,8 21,6 15 8 25 13 SW 1024,7 36 56 0,0
22.09.2018 10:00:00 13,5 8,7 14,7 14,5 16,6 21,6 12 7 16 9 SW 1024,5 39 20 0,0
22.09.2018 09:00:00 12,2 9,1 12,8 12,9 16,7 21,6 9 5 13 7 SSW 1025,0 41 10 0,0
22.09.2018 08:00:00 10,3 8,1 8,6 12,0 16,9 21,6 5 3 13 7 S 1024,4 39 0 0,0
22.09.2018 07:00:00 11,5 8,8 10,5 12,3 17,2 21,6 9 5 15 8 SW 1023,9 44 0 0,0
22.09.2018 06:00:00 11,2 8,5 9,5 12,3 17,4 21,7 7 4 18 10 SSW 1023,7 46 0 0,0
22.09.2018 05:00:00 12,1 8,3 10,8 12,5 17,8 21,7 14 8 21 11 SW 1023,4 52 0 0,0
22.09.2018 04:00:00 12,2 7,9 11,0 12,7 18,1 21,7 13 7 22 12 WSW 1023,2 55 0 0,0
22.09.2018 03:00:00 12,8 8,5 11,4 13,0 18,5 21,7 17 9 24 13 SW 1022,9 54 0 0,0
22.09.2018 02:00:00 12,4 9,5 11,2 13,5 18,9 21,7 11 6 22 12 SSW 1022,4 43 0 0,0
22.09.2018 01:00:00 12,7 9,7 11,6 13,8 19,3 21,7 16 8 22 12 WSW 1022,0 41 0 0,0
22.09.2018 00:00:00 13,0 10,2 11,8 14,3 19,8 21,7 16 8 30 16 SW 1021,4 40 0 0,0
21.09.2018 23:00:00 13,4 10,5 12,7 14,9 20,3 21,7 19 11 29 16 SW 1020,4 45 0 0,0
21.09.2018 22:00:00 13,4 10,8 12,8 15,4 20,9 21,7 21 11 30 16 SW 1019,6 44 0 0,0
21.09.2018 21:00:00 13,1 11,4 12,1 15,8 21,6 21,7 18 10 31 17 SW 1018,7 39 0 0,0
21.09.2018 20:00:00 13,4 11,7 12,4 17,0 22,3 21,7 21 12 32 17 SW 1017,5 48 0 0,0
21.09.2018 19:00:00 13,7 12,3 13,3 18,6 23,0 21,7 22 12 32 17 SW 1016,8 53 0 0,1
21.09.2018 18:00:00 13,8 12,4 13,3 20,2 23,7 21,7 16 9 51 28 SW 1015,4 7 0 1,9
21.09.2018 17:00:00 15,6 13,0 14,9 24,1 23,8 21,7 34 19 51 28 NW 1013,4 18 0 0,1
21.09.2018 16:00:00 25,2 10,8 26,2 26,2 23,6 21,7 28 15 44 24 WSW 1009,6 37 0 0,0
21.09.2018 15:00:00 25,3 10,4 26,3 26,2 23,3 21,7 21 11 53 28 WSW 1010,1 44 0 0,0
21.09.2018 14:00:00 25,7 13,7 27,3 26,9 22,7 21,7 23 12 40 22 W 1010,0 26 15 0,0
21.09.2018 13:00:00 25,2 14,3 26,4 25,6 22,0 21,7 17 9 39 21 WSW 1010,2 26 9 0,0
21.09.2018 12:00:00 25,6 13,9 26,8 24,9 21,3 21,7 24 13 39 21 WSW 1010,4 26 25 0,0
21.09.2018 11:00:00 25,2 13,8 27,4 22,2 20,9 21,7 24 13 36 20 WSW 1010,6 16 24 0,0
21.09.2018 10:00:00 19,9 14,1 20,2 19,8 20,7 21,7 8 4 13 7 SSW 1010,4 22 6 0,0
21.09.2018 09:00:00 18,2 12,8 19,8 18,8 20,7 21,7 6 3 11 6 SW 1010,6 19 50 0,0
21.09.2018 08:00:00 13,5 11,5 13,1 17,1 21,0 21,7 6 3 9 5 S 1011,1 14 9 0,0
21.09.2018 07:00:00 12,5 10,8 11,3 17,3 21,4 21,6 6 3 7 4 SE 1011,2 18 0 0,0
21.09.2018 06:00:00 12,5 10,6 11,4 17,6 21,8 21,6 3 2 5 3 SSW 1011,7 20 0 0,0
21.09.2018 05:00:00 12,9 11,0 11,2 18,1 22,2 21,6 0 0 8 5 N 1012,2 20 0 0,0
21.09.2018 04:00:00 13,7 11,2 12,4 18,6 22,6 21,6 7 4 9 5 SE 1012,8 22 0 0,0
21.09.2018 03:00:00 13,7 11,4 12,0 19,1 23,1 21,6 3 2 8 4 S 1013,3 22 0 0,0
21.09.2018 02:00:00 13,7 11,3 12,4 19,6 23,7 21,6 5 3 6 3 SSE 1013,6 21 0 0,0
21.09.2018 01:00:00 14,5 12,5 12,2 20,4 24,2 21,6 1 1 6 3 WSW 1013,9 20 0 0,0
21.09.2018 00:00:00 15,4 12,5 12,8 21,3 24,9 21,6 4 2 5 3 WSW 1014,1 21 0 0,0
20.09.2018 23:00:00 16,6 12,6 14,3 22,4 25,5 21,5 3 2 5 3 S 1014,6 26 0 0,0
20.09.2018 22:00:00 18,2 13,4 15,1 23,7 26,1 21,6 3 2 8 4 SSW 1015,1 24 0 0,0
20.09.2018 21:00:00 19,7 13,1 17,9 25,2 26,7 21,6 8 4 9 5 SE 1015,4 27 0 0,0
20.09.2018 20:00:00 23,5 14,1 19,5 27,2 27,2 21,6 4 2 7 4 SW 1015,2 30 5 0,0
20.09.2018 19:00:00 27,9 12,9 26,9 29,8 27,4 21,6 6 3 16 8 WSW 1015,2 44 60 0,0
20.09.2018 18:00:00 29,0 12,2 30,2 31,8 27,3 21,6 13 7 26 14 W 1015,6 34 60 0,0
20.09.2018 17:00:00 29,6 11,7 32,0 33,2 26,8 21,6 15 8 26 14 WSW 1016,2 23 60 0,0
20.09.2018 16:00:00 29,6 12,1 32,9 33,7 26,0 21,6 14 8 29 16 WSW 1016,7 24 60 0,0
20.09.2018 15:00:00 28,8 12,0 33,1 33,3 25,1 21,5 21 11 40 22 SW 1017,4 18 60 0,0
20.09.2018 14:00:00 27,8 12,3 32,3 32,1 24,0 21,5 19 10 27 15 W 1018,4 21 60 0,0
20.09.2018 13:00:00 27,4 12,9 31,5 30,3 22,9 21,5 16 9 25 14 WSW 1019,0 15 60 0,0
20.09.2018 12:00:00 25,1 13,9 29,1 27,5 22,0 21,5 11 6 20 11 SW 1020,0 16 60 0,0
20.09.2018 11:00:00 23,8 14,3 27,2 24,2 21,4 21,5 13 7 20 11 SW 1020,4 18 60 0,0
20.09.2018 10:00:00 21,6 14,3 23,9 21,2 21,1 21,5 14 7 20 11 SSW 1020,2 15 60 0,0
20.09.2018 09:00:00 18,5 14,2 18,9 19,0 21,2 21,5 11 6 14 8 SW 1020,4 16 43 0,0
20.09.2018 08:00:00 16,7 13,8 16,2 18,3 21,4 21,4 6 3 12 6 SSW 1020,4 17 5 0,0
20.09.2018 07:00:00 16,0 13,3 14,7 18,3 21,8 21,4 9 5 11 6 SSW 1020,0 19 0 0,0
20.09.2018 06:00:00 15,4 13,3 13,7 18,6 22,1 21,4 6 4 8 4 SW 1019,8 19 0 0,0
20.09.2018 05:00:00 15,5 13,1 13,5 19,0 22,5 21,4 6 3 8 4 SW 1019,8 20 0 0,0
20.09.2018 04:00:00 15,9 13,6 13,7 19,4 22,9 21,4 6 3 8 4 SW 1019,8 22 0 0,0
20.09.2018 03:00:00 15,4 13,4 13,7 20,0 23,4 21,4 3 2 8 4 S 1019,7 21 0 0,0
20.09.2018 02:00:00 16,3 13,2 14,3 20,7 23,9 21,3 0 0 12 6 N 1019,8 25 0 0,0
20.09.2018 01:00:00 17,0 13,7 15,5 21,3 24,4 21,3 5 3 8 4 S 1019,7 26 0 0,0
20.09.2018 00:00:00 17,0 13,9 15,1 22,1 24,9 21,3 2 1 3 2 SSW 1019,5 27 0 0,0
19.09.2018 23:00:00 17,9 15,4 16,0 23,1 25,5 21,3 3 2 5 3 SSW 1019,2 18 0 0,0
19.09.2018 22:00:00 19,5 14,4 16,9 24,3 26,1 21,3 4 2 6 4 S 1019,0 32 0 0,0
19.09.2018 21:00:00 21,5 14,0 18,9 25,7 26,7 21,3 5 3 8 5 SSE 1018,8 39 0 0,0
19.09.2018 20:00:00 24,8 13,1 21,5 27,7 27,2 21,3 3 2 13 7 W 1018,4 34 11 0,0
19.09.2018 19:00:00 28,6 13,2 28,0 30,1 27,3 21,3 10 6 20 11 WSW 1018,0 50 60 0,0
19.09.2018 18:00:00 29,6 12,3 30,6 32,2 27,1 21,3 14 8 20 11 W 1017,8 46 60 0,0
19.09.2018 17:00:00 30,4 11,6 32,8 33,7 26,6 21,3 14 8 22 12 WSW 1018,1 30 60 0,0
19.09.2018 16:00:00 30,3 12,1 33,6 34,2 25,7 21,3 13 7 25 13 WSW 1018,3 21 60 0,0
19.09.2018 15:00:00 29,7 12,9 33,4 33,8 24,6 21,3 10 5 21 11 WSW 1018,7 34 60 0,0
19.09.2018 14:00:00 27,6 12,9 34,2 32,1 23,5 21,3 7 4 22 12 WNW 1019,5 45 54 0,0
19.09.2018 13:00:00 26,8 12,9 31,5 29,8 22,4 21,3 11 6 20 11 SW 1019,8 26 60 0,0
19.09.2018 12:00:00 24,8 14,0 28,9 27,1 21,4 21,3 10 5 18 10 WSW 1020,3 19 60 0,0
19.09.2018 11:00:00 23,3 13,8 26,4 23,9 20,8 21,3 9 5 22 12 W 1020,5 37 60 0,0
19.09.2018 10:00:00 20,8 13,0 23,1 20,9 20,5 21,3 16 9 23 12 SW 1020,1 14 60 0,0
19.09.2018 09:00:00 17,8 13,9 19,1 18,5 20,5 21,3 10 5 14 8 SSW 1020,2 23 60 0,0
19.09.2018 08:00:00 15,3 12,6 15,0 17,4 20,8 21,3 6 4 11 6 WSW 1020,0 23 14 0,0
19.09.2018 07:00:00 15,1 12,5 13,5 17,6 21,1 21,2 7 4 11 6 WSW 1019,3 24 0 0,0
19.09.2018 06:00:00 15,7 12,5 13,5 18,0 21,5 21,2 8 4 10 5 SW 1018,9 27 0 0,0
19.09.2018 05:00:00 15,7 13,0 13,8 18,4 21,9 21,2 8 5 11 6 S 1019,0 26 0 0,0
19.09.2018 04:00:00 15,7 13,0 13,5 18,9 22,3 21,2 6 4 9 5 SSW 1018,9 26 0 0,0
19.09.2018 03:00:00 16,9 13,5 14,3 19,5 22,7 21,2 6 4 13 7 SW 1018,5 29 0 0,0
19.09.2018 02:00:00 18,1 13,2 16,4 20,3 23,2 21,2 10 6 14 7 WSW 1018,2 35 0 0,0
19.09.2018 01:00:00 18,9 13,5 17,7 21,0 23,7 21,2 13 7 21 11 SW 1018,0 32 0 0,0
19.09.2018 00:00:00 20,6 13,7 19,4 21,8 24,1 21,2 13 7 21 11 WSW 1017,7 32 0 0,0
18.09.2018 23:00:00 20,6 14,2 19,2 22,6 24,6 21,2 11 6 18 10 WSW 1017,1 29 0 0,0
18.09.2018 22:00:00 21,6 14,0 20,3 23,7 25,2 21,2 11 6 16 9 WSW 1016,7 33 0 0,0
18.09.2018 21:00:00 22,9 13,5 19,8 25,2 25,6 21,2 5 3 14 7 SSW 1015,9 29 0 0,0
18.09.2018 20:00:00 24,9 14,0 23,7 27,0 25,9 21,2 11 6 19 10 SSW 1015,7 36 0 0,0
18.09.2018 19:00:00 27,8 15,1 27,7 29,0 25,9 21,2 13 7 24 13 WSW 1014,9 37 12 0,0
18.09.2018 18:00:00 28,9 14,6 29,8 30,2 25,7 21,2 17 9 26 14 SW 1014,7 23 43 0,0
18.09.2018 17:00:00 30,0 14,2 32,8 31,8 25,1 21,2 13 7 24 13 SW 1014,6 21 57 0,0
18.09.2018 16:00:00 29,5 13,6 33,0 31,7 24,4 21,2 14 8 30 16 WSW 1014,9 23 57 0,0
18.09.2018 15:00:00 28,7 13,8 31,0 30,8 23,4 21,2 17 9 33 18 SSW 1015,4 35 52 0,0
18.09.2018 14:00:00 28,6 13,1 32,4 29,2 22,5 21,2 18 10 33 18 WSW 1016,0 27 47 0,0
18.09.2018 13:00:00 27,7 13,6 31,1 28,6 21,4 21,2 15 8 27 15 SW 1016,1 23 53 0,0
18.09.2018 12:00:00 25,6 12,5 29,6 26,3 20,3 21,2 14 8 21 12 SSW 1016,6 15 60 0,0
18.09.2018 11:00:00 22,0 11,2 25,6 22,9 19,6 21,2 7 4 12 7 SSW 1016,9 17 60 0,0
18.09.2018 10:00:00 19,2 11,0 21,9 19,6 19,2 21,2 5 3 9 5 SSW 1017,2 21 60 0,0
18.09.2018 09:00:00 17,1 11,2 18,1 16,7 19,2 21,2 3 1 8 4 SE 1017,1 17 60 0,0
18.09.2018 08:00:00 11,0 9,3 10,8 15,2 19,6 21,2 2 1 7 4 NW 1016,9 23 19 0,0
18.09.2018 07:00:00 10,2 9,1 9,0 15,4 20,0 21,2 7 4 9 5 SE 1016,7 19 0 0,0
18.09.2018 06:00:00 10,0 8,9 8,7 15,8 20,4 21,1 3 2 4 2 ESE 1016,7 19 0 0,0
18.09.2018 05:00:00 10,7 9,7 9,1 16,3 20,8 21,1 3 2 4 2 SE 1016,5 19 0 0,0
18.09.2018 04:00:00 11,0 10,3 9,4 16,9 21,3 21,1 3 1 5 3 E 1016,5 20 0 0,0
18.09.2018 03:00:00 12,1 10,6 10,0 17,5 21,8 21,1 3 1 8 5 SE 1016,4 21 0 0,0
18.09.2018 02:00:00 13,0 11,5 10,9 18,2 22,4 21,1 4 2 7 4 SW 1016,6 19 0 0,0
18.09.2018 01:00:00 14,0 9,9 11,6 19,1 23,0 21,1 4 2 8 5 NNW 1016,5 25 0 0,0
18.09.2018 00:00:00 14,2 10,0 12,7 20,0 23,6 21,1 6 4 9 5 NE 1016,6 31 0 0,0
17.09.2018 23:00:00 14,9 9,8 12,7 21,1 24,3 21,1 3 2 6 3 E 1016,8 41 0 0,0
17.09.2018 22:00:00 16,2 10,0 14,0 22,4 25,0 21,1 3 2 7 4 NNE 1017,2 41 0 0,0
17.09.2018 21:00:00 17,9 9,2 15,1 24,1 25,6 21,2 4 2 8 4 SE 1017,1 40 0 0,0
17.09.2018 20:00:00 21,9 8,9 18,4 26,4 26,1 21,2 3 2 7 4 NE 1016,7 51 20 0,0
17.09.2018 19:00:00 27,0 6,7 26,8 29,1 26,2 21,2 6 3 10 5 N 1016,5 55 60 0,0
17.09.2018 18:00:00 28,1 5,9 30,7 31,3 26,0 21,2 8 4 14 8 NNW 1016,8 52 60 0,0
17.09.2018 17:00:00 27,9 6,8 31,4 32,5 25,4 21,2 10 6 21 11 WNW 1017,3 35 60 0,0
17.09.2018 16:00:00 28,0 7,7 31,9 33,4 24,4 21,2 13 7 20 11 WNW 1017,9 33 60 0,0
17.09.2018 15:00:00 28,0 8,8 32,3 32,9 23,2 21,2 9 5 20 11 SW 1018,5 18 60 0,0
17.09.2018 14:00:00 27,6 9,2 32,9 31,5 21,9 21,2 6 3 27 15 W 1019,3 20 60 0,0
17.09.2018 13:00:00 25,0 11,7 30,1 28,7 20,6 21,2 6 4 11 6 W 1020,1 16 60 0,0
17.09.2018 12:00:00 22,4 11,9 27,6 25,4 19,5 21,2 5 3 10 5 NW 1020,8 15 60 0,0
17.09.2018 11:00:00 19,5 11,8 22,4 21,8 18,7 21,2 5 3 10 5 SW 1021,2 19 60 0,0
17.09.2018 10:00:00 16,8 11,8 19,4 18,4 18,4 21,2 5 3 8 4 S 1021,7 13 60 0,0
17.09.2018 09:00:00 14,5 11,0 16,6 15,6 18,4 21,2 3 1 6 4 E 1021,6 15 60 0,0
17.09.2018 08:00:00 9,8 8,7 9,7 14,1 18,7 21,2 2 1 5 3 ESE 1021,7 14 21 0,0
17.09.2018 07:00:00 8,9 8,4 7,4 14,3 19,1 21,2 2 1 8 4 E 1021,6 8 0 0,0
17.09.2018 06:00:00 9,1 8,5 7,6 14,8 19,6 21,2 4 2 6 3 ESE 1021,8 8 0 0,0
17.09.2018 05:00:00 9,8 9,1 8,0 15,4 20,0 21,2 5 3 6 4 SE 1021,1 9 0 0,0
17.09.2018 04:00:00 10,4 9,6 8,4 16,0 20,5 21,2 4 2 5 3 SE 1021,0 16 0 0,0
17.09.2018 03:00:00 10,6 9,7 9,5 16,6 21,0 21,2 3 2 4 2 ESE 1021,0 11 0 0,0
17.09.2018 02:00:00 11,2 10,0 9,7 17,3 21,5 21,2 0 0 4 2 N 1021,1 17 0 0,0
17.09.2018 01:00:00 12,0 10,4 10,3 18,1 22,1 21,2 3 2 5 3 S 1020,9 18 0 0,0
17.09.2018 00:00:00 13,2 11,2 11,3 19,0 22,7 21,2 3 2 4 2 SSE 1020,8 19 0 0,0
16.09.2018 23:00:00 14,4 11,7 12,5 20,1 23,3 21,3 3 2 6 3 SSW 1021,0 23 0 0,0
16.09.2018 22:00:00 15,7 11,8 13,2 21,4 23,9 21,3 2 1 7 4 SW 1020,9 26 0 0,0
16.09.2018 21:00:00 17,2 11,5 15,3 23,0 24,5 21,3 6 4 8 4 SE 1020,3 29 0 0,0
16.09.2018 20:00:00 22,2 10,9 18,7 25,2 24,8 21,3 5 3 8 4 WNW 1019,8 40 16 0,0
16.09.2018 19:00:00 25,2 10,2 26,2 27,5 24,9 21,3 7 4 14 7 NW 1019,3 48 41 0,0
16.09.2018 18:00:00 25,4 9,2 26,7 29,0 24,7 21,3 8 5 14 7 NW 1019,2 49 32 0,0
16.09.2018 17:00:00 26,2 9,3 29,1 30,7 24,1 21,4 9 5 19 10 W 1019,2 33 60 0,0

tt = Température de l'air
td = dewpoint
tt 5cm = Température de l'air 5cm
tt -5cm = Température de l'air -5cm
tt -20cm = Température de l'air -20cm
tt -100cm = Température de l'air -100cm
ff = Vitesse du vent
fx = gusts
dd = Direction du vent
ppp = reduced air pressure
vv = visibility
sd = Ensoleillement
rr = Quantités de précipitations

stations d'obs. à proximité